Regional Weather Roundup
Issued by NWS

Home | Current Version | Previous Version | Graphics & Text | Print | Product List | Glossary On
Versions: 1 2 3 4 5 6 7 8 9 10 11 12 13 14 15 16 17 18 19 20 21 22 23 24 25 26 27 28 29 30 31 32 33 34 35 36 37 38 39 40 41 42 43 44 45 46 47 48 49 50
000
ASUS43 KFSD 260202
RWRSD

WEATHER ROUNDUP FOR SOUTH DAKOTA
NATIONAL WEATHER SERVICE SIOUX FALLS SD
900 PM CDT SAT APR 25 2015

NOTE: "FAIR" INDICATES FEW OR NO CLOUDS BELOW 12,000 FEET WITH NO
SIGNIFICANT WEATHER AND/OR OBSTRUCTIONS TO VISIBILITY.


SDZ001>005-009-010-012>017-260300-
NORTHWEST AND NORTH CENTRAL SOUTH DAKOTA

CITY           SKY/WX    TMP DP  RH WIND       PRES   REMARKS
BUFFALO          N/A     45  42  89 NW15      29.78R
FAITH            N/A     50  45  83 NE5       29.84R
MOBRIDGE       CLOUDY    52  43  71 E15       29.84R
$$

SDZ012>016-024>037-041>051-057-063-072>074-260300-
SOUTHWEST AND SOUTH CENTRAL SOUTH DAKOTA

CITY           SKY/WX    TMP DP  RH WIND       PRES   REMARKS
RAPID CTY ARPT LGT RAIN  51  48  89 NE3       29.82R
PIERRE         CLOUDY    55  46  71 SE9       29.84R
CUSTER         CLOUDY    45  42  89 NE7       29.82R
ELLSWORTH AFB  DRIZZLE   52  50  93 NE3       29.81
PHILIP         CLOUDY    57  48  72 E12       29.80R
PINE RIDGE     LGT RAIN  54  49  83 E16G25    29.76R
WINNER         CLOUDY    57  45  64 E7        29.85R
$$

SDZ004>011-016>023-039-040-260300-
NORTHEAST SOUTH DAKOTA

CITY           SKY/WX    TMP DP  RH WIND       PRES   REMARKS
ABERDEEN       CLOUDY    52  42  69 E9        29.91R
WATERTOWN      PTCLDY    50  42  74 NE8       29.90R
BROOKINGS      CLOUDY    52  41  66 SE12      29.91R
SISSETON         N/A     51  43  74 CALM      29.92R
$$

SDZ017-020-022-023-036>040-048>070-260300-
SOUTHEAST SOUTH DAKOTA

CITY           SKY/WX    TMP DP  RH WIND       PRES   REMARKS
SIOUX FALLS    CLOUDY    55  39  54 E13       29.89R
HURON          CLOUDY    56  43  61 E8        29.87R
MITCHELL       MOCLDY    53  45  74 E7        29.87R
YANKTON        CLOUDY    55  39  54 E15G23    29.85R
$$

ABBREVIATIONS USED IN REMARKS
   TC - TEMPERATURE IN CELSIUS
  WCI - WIND CHILL INDEX
   HX - HEAT INDEX
  VSB - VISIBILITY




USA.gov is the U.S. government's official web portal to all federal, state and local government web resources and services.